When you browse on this site, cookies collect data to enhance your experience and personalize the content and advertising you see.
Visit our Privacy Policy to learn more. By continuing to use the site, you agree to this use of cookies and data.
  • In Hungary
  • List of Countries
  • For 7 days
  • Water Temperature
  • Satellite Maps
  • Weather Map
  • News
  • Weather Widgets
  • user-avatar
    Login

    Hourly Weather Djaipur

    Today, 23 July, Tuesday

    Time Temperature Precipitation Wind Pressure Humidity
    00:00 +34°C° 0 mm 1 mps 716 mmHg 55%
    01:00 +34°C° 0 mm 1 mps 716 mmHg 56%
    02:00 +32°C° 0 mm 0 mps 716 mmHg 58%
    03:00 +32°C° 0 mm 0 mps 716 mmHg 58%
    04:00 +33°C° 0 mm 1 mps 716 mmHg 58%
    05:00 +33°C° 0 mm 1 mps 716 mmHg 58%
    06:00 +34°C° 0 mm 1 mps 716 mmHg 55%
    07:00 +36°C° 0 mm 2 mps 717 mmHg 51%
    08:00 +37°C° 0 mm 2 mps 718 mmHg 47%
    09:00 +38°C° 0 mm 2 mps 718 mmHg 44%
    10:00 +39°C° 0 mm 2 mps 717 mmHg 41%
    11:00 +40°C° 0 mm 2 mps 717 mmHg 37%
    12:00 +41°C° 0 mm 2 mps 717 mmHg 36%
    13:00 +41°C° 0 mm 2 mps 716 mmHg 35%
    14:00 +42°C° 0 mm 3 mps 715 mmHg 34%
    15:00 +42°C° 0 mm 3 mps 715 mmHg 34%
    16:00 +42°C° 0 mm 3 mps 715 mmHg 34%
    17:00 +42°C° 0 mm 3 mps 715 mmHg 34%
    18:00 +40°C° 0 mm 3 mps 715 mmHg 37%
    19:00 +39°C° 0 mm 3 mps 715 mmHg 39%
    20:00 +38°C° 0 mm 4 mps 715 mmHg 42%
    21:00 +38°C° 0 mm 3 mps 715 mmHg 44%
    22:00 +38°C° 0 mm 3 mps 715 mmHg 45%
    23:00 +37°C° 0 mm 3 mps 716 mmHg 46%

    Tomorrow, 24 July, Wednesday

    Time Temperature Precipitation Wind Pressure Humidity
    00:00 +37°C° 0 mm 3 mps 715 mmHg 47%
    01:00 +37°C° 0 mm 4 mps 715 mmHg 49%
    02:00 +36°C° 0 mm 4 mps 715 mmHg 50%
    03:00 +36°C° 0 mm 4 mps 715 mmHg 51%
    04:00 +36°C° 0 mm 4 mps 715 mmHg 52%
    05:00 +35°C° 0 mm 4 mps 715 mmHg 52%
    06:00 +36°C° 0 mm 5 mps 715 mmHg 51%
    07:00 +38°C° 0 mm 6 mps 716 mmHg 49%
    08:00 +38°C° 0 mm 7 mps 716 mmHg 48%
    09:00 +40°C° 0 mm 6 mps 716 mmHg 45%
    10:00 +41°C° 0 mm 6 mps 716 mmHg 42%
    11:00 +42°C° 0 mm 6 mps 716 mmHg 39%
    12:00 +42°C° 0 mm 5 mps 716 mmHg 37%
    13:00 +42°C° 0 mm 5 mps 715 mmHg 36%
    14:00 +43°C° 0 mm 5 mps 715 mmHg 35%
    15:00 +43°C° 0 mm 5 mps 714 mmHg 35%
    16:00 +43°C° 0 mm 5 mps 714 mmHg 34%
    17:00 +42°C° 0 mm 5 mps 714 mmHg 34%
    18:00 +41°C° 0.9 mm 5 mps 714 mmHg 40%
    19:00 +38°C° 0.9 mm 4 mps 715 mmHg 45%
    20:00 +37°C° 0.9 mm 4 mps 715 mmHg 50%
    21:00 +35°C° 1 mm 4 mps 715 mmHg 54%
    22:00 +34°C° 1 mm 5 mps 715 mmHg 59%
    23:00 +33°C° 1 mm 5 mps 715 mmHg 63%

    Day after tomorrow, 25 July, Thursday

    Time Temperature Precipitation Wind Pressure Humidity
    00:00 +33°C° 0.7 mm 4 mps 715 mmHg 62%
    01:00 +34°C° 0.7 mm 3 mps 714 mmHg 61%
    02:00 +34°C° 0.7 mm 3 mps 714 mmHg 60%
    03:00 +34°C° 0 mm 4 mps 714 mmHg 61%
    04:00 +33°C° 0 mm 5 mps 715 mmHg 62%
    05:00 +33°C° 0 mm 6 mps 715 mmHg 63%
    06:00 +33°C° 0 mm 7 mps 715 mmHg 62%
    07:00 +34°C° 0 mm 7 mps 716 mmHg 61%
    08:00 +34°C° 0 mm 8 mps 716 mmHg 60%
    09:00 +36°C° 0 mm 7 mps 716 mmHg 55%
    10:00 +38°C° 0 mm 6 mps 716 mmHg 50%
    11:00 +39°C° 0 mm 6 mps 716 mmHg 44%
    12:00 +40°C° 0 mm 6 mps 716 mmHg 41%
    13:00 +41°C° 0 mm 6 mps 715 mmHg 38%
    14:00 +42°C° 0 mm 6 mps 715 mmHg 34%
    15:00 +41°C° 0 mm 6 mps 715 mmHg 35%
    16:00 +41°C° 0 mm 5 mps 715 mmHg 36%
    17:00 +40°C° 0 mm 5 mps 714 mmHg 37%
    18:00 +36°C° 1.1 mm 6 mps 715 mmHg 49%
    19:00 +34°C° 1.1 mm 7 mps 715 mmHg 61%
    20:00 +31°C° 1.1 mm 8 mps 716 mmHg 73%
    21:00 +29°C° 0.2 mm 6 mps 715 mmHg 75%
    22:00 +29°C° 0.2 mm 5 mps 715 mmHg 76%
    23:00 +28°C° 0.2 mm 3 mps 715 mmHg 78%

    26 July, Friday

    Time Temperature Precipitation Wind Pressure Humidity
    00:00 +28°C° 0.6 mm 3 mps 715 mmHg 78%
    01:00 +28°C° 0.6 mm 3 mps 715 mmHg 79%
    02:00 +28°C° 0.6 mm 3 mps 714 mmHg 79%
    03:00 +28°C° 0.6 mm 2 mps 714 mmHg 80%
    04:00 +28°C° 0.6 mm 2 mps 714 mmHg 80%
    05:00 +28°C° 0.6 mm 2 mps 714 mmHg 81%
    06:00 +29°C° 0.3 mm 2 mps 715 mmHg 78%
    07:00 +29°C° 0.3 mm 3 mps 715 mmHg 75%
    08:00 +30°C° 0.3 mm 4 mps 715 mmHg 72%
    09:00 +29°C° 0.7 mm 4 mps 716 mmHg 73%
    10:00 +29°C° 0.7 mm 3 mps 716 mmHg 74%
    11:00 +29°C° 0.7 mm 3 mps 716 mmHg 74%
    12:00 +29°C° 0.6 mm 3 mps 715 mmHg 74%
    13:00 +30°C° 0.6 mm 3 mps 715 mmHg 74%
    14:00 +30°C° 0.6 mm 3 mps 714 mmHg 73%
    15:00 +30°C° 1.2 mm 3 mps 714 mmHg 74%
    16:00 +30°C° 1.2 mm 3 mps 714 mmHg 74%
    17:00 +30°C° 1.2 mm 2 mps 714 mmHg 74%
    18:00 +30°C° 0.8 mm 2 mps 714 mmHg 75%
    19:00 +30°C° 0.8 mm 2 mps 714 mmHg 75%
    20:00 +30°C° 0.8 mm 2 mps 715 mmHg 76%
    21:00 +29°C° 1.4 mm 2 mps 715 mmHg 78%
    22:00 +29°C° 1.4 mm 1 mps 715 mmHg 80%
    23:00 +29°C° 1.4 mm 1 mps 715 mmHg 82%

    27 July, Saturday

    Time Temperature Precipitation Wind Pressure Humidity
    00:00 +28°C° 2.1 mm 1 mps 715 mmHg 83%
    01:00 +28°C° 2.1 mm 2 mps 714 mmHg 84%
    02:00 +28°C° 2.1 mm 2 mps 714 mmHg 86%
    03:00 +28°C° 1.5 mm 2 mps 714 mmHg 87%
    04:00 +28°C° 1.5 mm 3 mps 714 mmHg 88%
    05:00 +27°C° 1.5 mm 3 mps 714 mmHg 88%
    06:00 +27°C° 1.5 mm 4 mps 714 mmHg 88%
    07:00 +27°C° 1.5 mm 4 mps 714 mmHg 87%
    08:00 +28°C° 1.5 mm 5 mps 715 mmHg 86%
    09:00 +28°C° 2 mm 5 mps 715 mmHg 85%
    10:00 +28°C° 2 mm 5 mps 715 mmHg 84%
    11:00 +28°C° 2 mm 5 mps 715 mmHg 83%
    12:00 +28°C° 0.5 mm 5 mps 715 mmHg 82%
    13:00 +29°C° 0.5 mm 5 mps 714 mmHg 81%
    14:00 +29°C° 0.5 mm 5 mps 714 mmHg 80%
    15:00 +29°C° 0 mm 5 mps 714 mmHg 78%
    16:00 +30°C° 0 mm 4 mps 713 mmHg 75%
    17:00 +30°C° 0 mm 4 mps 713 mmHg 72%
    18:00 +30°C° 0 mm 3 mps 713 mmHg 74%
    19:00 +30°C° 0 mm 2 mps 714 mmHg 77%
    20:00 +29°C° 0 mm 1 mps 714 mmHg 79%
    21:00 +29°C° 0 mm 1 mps 714 mmHg 79%
    22:00 +29°C° 0 mm 2 mps 714 mmHg 79%
    23:00 +29°C° 0 mm 2 mps 715 mmHg 80%

    28 July, Sunday

    Time Temperature Precipitation Wind Pressure Humidity
    00:00 +29°C° 0 mm 2 mps 714 mmHg 80%
    01:00 +29°C° 0 mm 2 mps 714 mmHg 80%
    02:00 +29°C° 0 mm 2 mps 714 mmHg 81%
    03:00 +28°C° 0.3 mm 2 mps 714 mmHg 81%
    04:00 +28°C° 0.3 mm 1 mps 714 mmHg 82%
    05:00 +28°C° 0.3 mm 1 mps 714 mmHg 82%
    06:00 +29°C° 0.2 mm 1 mps 714 mmHg 78%
    07:00 +30°C° 0.2 mm 1 mps 714 mmHg 73%
    08:00 +31°C° 0.2 mm 1 mps 715 mmHg 69%
    09:00 +32°C° 0.2 mm 2 mps 715 mmHg 63%
    10:00 +35°C° 0.2 mm 3 mps 715 mmHg 58%
    11:00 +36°C° 0.2 mm 4 mps 715 mmHg 52%
    12:00 +37°C° 0 mm 4 mps 715 mmHg 50%
    13:00 +37°C° 0 mm 4 mps 714 mmHg 48%
    14:00 +38°C° 0 mm 4 mps 714 mmHg 45%
    15:00 +38°C° 0.1 mm 4 mps 713 mmHg 47%
    16:00 +37°C° 0.1 mm 4 mps 713 mmHg 48%
    17:00 +37°C° 0.1 mm 3 mps 713 mmHg 50%
    18:00 +36°C° 0.2 mm 4 mps 713 mmHg 54%
    19:00 +35°C° 0.2 mm 4 mps 714 mmHg 59%
    20:00 +33°C° 0.2 mm 4 mps 714 mmHg 64%
    21:00 +33°C° 0.9 mm 4 mps 714 mmHg 66%
    22:00 +33°C° 0.9 mm 4 mps 714 mmHg 68%
    23:00 +32°C° 0.9 mm 4 mps 715 mmHg 70%
    Show more